{"data":{"norad_id":67597,"intl_designator":"2026-018J","name":"STARLINK-36384","alt_names":[],"object_type":"PAYLOAD","status":"ACTIVE","operator":null,"country":"US","launch_date":"2026-01-29","launch_site_code":"AFWTR","launch_vehicle":null,"mission":null,"orbit_class":"UNKNOWN","rcs_meters":null,"size_class":null,"mass_kg":null,"dimensions":null,"purposes":["comms"],"wikipedia_slug":null,"has_3d_model":false,"image_url":null,"decayed_at":null,"tle_current":{"epoch":"2026-05-25T03:02:59.953056Z","epoch_age_seconds":60907,"freshness":"FRESH","line1":"1 67597U 26018J   26145.12708279  .00011640  00000+0  36230-3 0  9993","line2":"2 67597  97.2844 210.3357 0000594  15.8655 344.2606 15.33447318 19058","mean_motion":15.33447318,"eccentricity":5.94e-5,"inclination_deg":97.2844,"raan_deg":210.3357,"arg_perigee_deg":15.8655,"mean_anomaly_deg":344.2606,"bstar":0.0003623,"rev_number":1905,"period_min":93.906062705703,"perigee_km":465.12976355697,"apogee_km":465.94279194237,"semimajor_km":6843.6732777497,"source":"CELESTRAK","updated_at":"2026-05-25T13:38:21.620764Z"}}}